Вернуться в каталог

COSMOS 397 DEB

АктивенLEO
NORAD 5094·DEBRIS·🇷🇺 Russia

Запущен Feb 25, 1971 с Baikonur Cosmodrome

Loading…

Ближайшие Пролёты

TLE

Source: Space-Track
1 05094U 71015U   26218.96534538  .00007334  00000-0  10332-2 0  9992
2 05094  65.6834  72.9016 0310090 133.4983 229.2348 14.49918624696482

Отслеживайте COSMOS 397 DEB в реальном времени с AllMySat

Download on the App Store